Shungnak AP, Shungnak, AK, AK

12:21 AM AKST on December 07, 2019 (GMT -0900)
Shungnak AP, Shungnak, AK

Weather History for PAGH - October, 2019

Change the Weather History Date:

Friday, October 11, 2019

  Actual Average (PAFM) Record (PAFM)
Temperature  
Mean Temperature 28 °F -  
Max Temperature 35 °F 26 °F 44 °F (2016)
Min Temperature 21 °F 18 °F -9 °F (1988)
Degree Days  
Heating Degree Days 37    
Moisture  
Dew Point 22 °F    
Average Humidity 82    
Maximum Humidity 96    
Minimum Humidity 61    
Precipitation  
Precipitation 0.00 in - - ()
Sea Level Pressure  
Sea Level Pressure 29.99 in    
Wind  
Wind Speed 7 mph (WNW)    
Max Wind Speed 14 mph    
Max Gust Speed -    
Visibility 10 miles    
Events      
Averages and records for this station are not official NWS values.
T = Trace of Precipitation, MM = Missing Value Source: NWS Daily Summary

Daily Weather History Graph

Daily Weather History Graph

Search for Another Location

Airport or City:

Astronomy

Oct. 11, 2019 Rise Set
Actual Time 9:14 AM AKDT 7:14 PM AKDT
Civil Twilight 8:20 AM AKDT 8:08 PM AKDT
Nautical Twilight 7:19 AM AKDT 9:09 PM AKDT
Astronomical Twilight 6:14 AM AKDT 10:13 PM AKDT
Moon 7:58 PM AKDT (10/11) 5:38 AM AKDT (10/11)
Length of Visible Light 11h 47m
Length of Day
10h 00m
Waxing Gibbous, 96% of the Moon is Illuminated
Oct 11
Waxing Gibbous
Oct 13
Full
Oct 21
Last Quarter
Oct 27
New
Nov 4
First Quarter

Hourly Weather History & Observations

Time (AKDT) Temp. Windchill Dew Point Humidity Pressure Visibility Wind Dir Wind Speed Gust Speed Precip Events Conditions
12:56 AM 28.0 °F 20.8 °F 26.1 °F 92% 29.94 in 10.0 mi West 6.9 mph - N/A   Clear
2:56 AM 24.1 °F 17.0 °F 23.0 °F 96% 29.95 in 10.0 mi WSW 5.8 mph - N/A   Clear
3:56 AM 23.0 °F 15.8 °F 21.9 °F 96% 29.95 in 10.0 mi West 5.8 mph - N/A   Clear
4:56 AM 21.9 °F 13.4 °F 21.0 °F 96% 29.95 in 10.0 mi West 6.9 mph - N/A   Clear
5:56 AM 21.9 °F 12.5 °F 19.9 °F 92% 29.95 in 10.0 mi West 8.1 mph - N/A   Clear
6:56 AM 21.9 °F 12.5 °F 19.9 °F 92% 29.95 in 10.0 mi West 8.1 mph - N/A   Clear
7:56 AM 21.0 °F 16.2 °F 19.9 °F 96% 29.96 in 10.0 mi NW 3.5 mph - N/A   Clear
8:56 AM 21.9 °F 14.5 °F 21.0 °F 96% 29.96 in 10.0 mi WSW 5.8 mph - N/A   Clear
9:56 AM 23.0 °F 14.7 °F 21.0 °F 92% 29.96 in 10.0 mi West 6.9 mph - N/A   Clear
10:56 AM 25.0 °F - 21.9 °F 88% 29.97 in 10.0 mi Calm Calm - N/A   Clear
11:56 AM 28.9 °F 23.9 °F 26.1 °F 89% 29.97 in 10.0 mi West 4.6 mph - N/A   Clear
12:56 PM 33.1 °F 28.7 °F 25.0 °F 72% 29.98 in 10.0 mi West 4.6 mph - N/A   Clear
1:56 PM 35.1 °F 26.4 °F 24.1 °F 64% 29.99 in 10.0 mi WNW 12.7 mph - N/A   Clear
2:56 PM 35.1 °F 26.9 °F 23.0 °F 61% 29.99 in 10.0 mi WNW 11.5 mph - N/A   Clear
3:56 PM 35.1 °F 26.4 °F 24.1 °F 64% 29.99 in 10.0 mi NW 12.7 mph - N/A   Clear
4:56 PM 35.1 °F 26.9 °F 24.1 °F 64% 30.01 in 10.0 mi NW 11.5 mph - N/A   Clear
5:56 PM 33.1 °F 26.1 °F 23.0 °F 66% 30.02 in 10.0 mi NW 8.1 mph - N/A   Clear
6:56 PM 30.9 °F 20.7 °F 23.0 °F 72% 30.03 in 10.0 mi NW 13.8 mph - N/A   Clear
7:56 PM 27.0 °F 20.5 °F 21.0 °F 78% 30.04 in 10.0 mi West 5.8 mph - N/A   Clear
8:56 PM 27.0 °F 17.3 °F 19.9 °F 75% 30.06 in 10.0 mi NW 10.4 mph - N/A   Clear
9:56 PM 26.1 °F 18.4 °F 19.9 °F 78% 30.07 in 10.0 mi WNW 6.9 mph - N/A   Clear
10:56 PM 26.1 °F 16.8 °F 19.9 °F 78% 30.08 in 10.0 mi West 9.2 mph - N/A   Clear
11:56 PM 23.0 °F 14.7 °F 19.0 °F 85% 30.10 in 10.0 mi West 6.9 mph - N/A   Clear